Location: *
(49.4547°N, 7.9131°E)
Time: 19:49:02
(UTC+00:00)

Cosmos 1603 - Pass Details

Date: 22 September 2019
Orbit: 831 x 860 km, 71.0° (Epoch: 20 October)

Event Time Altitude Azimuth Distance (km) Brightness Sun altitude
Rises 20:54:15 0° 328° (NNW) 3,411 7.9 -31.3°
Reaches altitude 10° 20:56:45 10° 323° (NW) 2,476 7.0 -31.5°
Enters shadow 21:01:34 48° 272° (W) 1,105 4.4 -32.1°
